Temperature
19 20 20 21 17 15 17 18 19 20 20 22 22 22 19 19 19 19 20 19 18 17 17 16 16 15 14 14 13 13 13 12 12 12 11 11 11 11 10 10 10 10 10 11 11 11 11 11 11
19 19 20 20 15 16 17 18 19 20 22 22 22 22 20 20 20 20 20 19 18 18 17 16 16 15 14 14 13 13 13 12 12 11 11 11 11 10 10 10 10 11 10 11 11 11 12 12 12
19 19 20 16 16 16 18 19 19 21 23 23 22 21 21 20 20 20 20 19 18 18 17 17 16 15 15 14 13 13 13 12 12 11 11 11 11 11 11 11 11 11 11 11 11 11 12 12 12
19 19 19 16 18 18 19 19 20 21 22 23 22 20 20 19 20 20 20 20 19 18 17 17 16 16 15 14 13 13 12 12 12 11 11 11 11 11 11 11 11 11 11 11 12 12 12 12 12
19 19 16 16 18 19 18 21 22 20 21 22 21 19 19 20 20 20 20 19 19 18 18 17 16 16 15 14 13 13 12 12 12 11 11 11 11 11 12 12 12 12 12 12 12 12 12 12 12
19 17 15 16 18 19 20 22 22 21 21 21 21 19 19 19 19 19 19 19 19 18 18 17 16 15 15 14 13 13 12 12 12 11 11 11 11 11 12 12 12 12 12 12 12 12 12 12 12
19 15 16 17 18 19 20 22 22 20 21 21 21 18 18 19 19 19 18 18 18 17 17 16 16 15 14 14 13 13 12 12 12 11 11 11 11 11 11 12 12 12 12 12 12 12 12 12 12
20 15 17 17 18 20 21 22 22 22 21 22 21 19 19 19 19 18 17 17 17 17 16 16 16 15 14 14 13 12 12 12 11 11 11 11 11 11 11 11 11 11 11 11 11 11 11 11 11
20 15 16 18 19 19 20 21 21 22 22 21 21 20 20 19 19 18 17 16 16 16 16 15 15 15 14 14 13 12 12 11 11 11 11 11 11 11 11 11 11 11 11 11 11 11 11 11 11
19 15 18 19 19 19 20 20 21 21 20 20 20 20 19 19 18 18 17 17 16 16 16 15 15 14 14 14 13 12 12 11 11 11 10 10 10 10 10 10 10 10 10 10 10 10 10 10 10
19 17 18 19 20 20 20 20 20 20 19 20 20 19 19 18 18 17 17 17 17 16 16 15 15 14 14 13 13 12 11 11 11 10 10 10 10 10 10 10 10 9 9 9 9 9 9 9 9
19 19 19 20 20 20 20 20 19 19 20 20 20 19 19 18 18 18 17 17 16 16 16 15 15 14 13 13 13 12 11 11 11 10 10 10 10 9 9 9 9 9 9 9 9 9 9 9 9
18 18 20 20 20 20 20 19 19 19 19 19 19 18 18 18 18 17 17 17 16 16 16 15 15 14 13 13 12 12 11 11 10 10 10 9 9 9 9 9 8 8 8 8 8 8 8 8 8
19 19 19 19 19 19 19 18 18 19 19 18 18 18 18 18 17 17 17 17 16 16 16 15 15 14 13 12 12 11 11 10 10 10 9 9 9 9 9 8 8 8 8 8 8 7 7 7 7
19 18 16 17 18 18 18 17 16 19 18 18 18 18 17 17 17 17 17 17 17 16 16 15 14 14 13 12 12 11 11 10 10 10 9 9 9 9 8 8 8 8 8 7 7 7 7 7 7
17 16 15 16 17 17 17 16 16 19 18 18 17 17 17 17 17 17 17 17 16 16 15 15 14 13 13 12 11 11 10 10 10 10 9 9 9 8 8 8 8 8 7 7 7 7 7 7 7
15 15 16 16 17 16 16 16 16 18 18 17 17 17 16 16 16 16 16 16 16 16 15 14 14 13 12 12 11 11 10 10 10 9 9 9 9 8 8 8 8 8 7 7 7 7 7 6 6
15 15 16 16 17 16 15 15 15 17 17 17 16 16 16 16 16 16 16 15 15 15 15 14 13 13 12 11 11 10 10 10 9 9 9 9 9 8 8 8 8 7 7 7 7 7 7 6 6
16 16 15 15 16 16 15 15 15 16 15 15 15 15 15 15 15 15 15 15 15 14 14 14 13 13 12 11 11 10 10 10 10 9 9 9 9 8 8 8 8 7 7 7 7 7 7 7 6
15 15 15 15 16 16 15 14 15 14 14 15 15 14 15 14 14 14 14 14 14 14 14 13 13 13 12 12 11 11 10 10 10 10 9 9 9 9 8 8 8 7 7 7 7 6 6 6 6
16 15 15 15 16 15 15 14 14 14 15 15 15 15 15 15 15 14 14 14 14 14 14 13 13 13 12 12 11 11 10 10 10 10 9 9 9 8 8 8 7 7 7 7 6 6 6 6 6
15 16 15 15 15 13 15 13 14 14 14 12 12 13 14 14 14 14 14 13 13 13 13 13 13 13 12 12 11 11 11 10 10 9 9 9 8 8 7 7 7 7 6 6 6 6 6 5 5
15 16 16 16 15 13 13 13 13 13 13 12 11 12 13 14 14 14 14 13 13 13 13 13 12 12 12 12 11 11 11 10 10 9 8 8 8 7 7 7 7 6 6 6 6 6 5 5 5
15 15 14 11 11 12 12 11 13 12 13 12 11 12 13 13 13 13 13 13 12 12 12 12 12 12 12 11 11 11 10 10 9 9 8 8 7 7 7 6 6 6 6 6 5 5 5 5 4
15 13 12 12 11 11 12 12 13 14 13 13 12 12 13 13 13 13 13 12 12 12 12 12 11 11 11 11 11 10 10 10 9 9 8 8 7 7 7 6 6 6 6 5 5 5 5 4 4
13 13 12 12 12 12 13 12 14 15 14 15 14 13 13 13 13 13 13 13 12 12 12 11 11 11 11 11 10 10 10 9 9 8 8 7 7 7 6 6 6 5 5 5 5 4 4 4 3
12 12 12 12 12 12 12 13 14 15 14 13 12 12 12 13 13 13 13 13 12 12 11 11 11 11 10 10 10 10 9 9 8 8 7 7 6 6 6 5 5 5 5 5 4 4 4 3 3
13 12 11 11 12 12 12 13 14 15 15 12 10 11 12 13 13 13 13 13 12 12 11 11 10 10 10 10 9 9 9 8 8 7 7 6 6 6 5 5 5 5 5 4 4 3 3 2 2
13 13 12 11 10 11 12 13 14 15 14 12 11 12 13 13 13 13 13 13 12 12 11 10 10 10 9 9 9 9 8 8 7 7 6 6 5 5 5 5 5 4 4 4 3 3 2 1 1
12 12 11 11 12 10 10 12 14 14 14 13 13 13 14 14 14 14 13 12 12 11 11 10 10 9 9 9 8 8 7 7 7 6 6 5 5 5 4 4 4 4 3 3 2 2 1 1 0
Wind_Speed
7 7 3 4 6 5 2 4 4 5 3 2 5 9 9 6 4 3 2 12 11 15 21 21 19 18 16 15 14 13 12 11 11 11 11 11 11 11 11 11 11 11 12 12 12 12 12 12 12
3 3 5 5 5 1 4 3 5 6 6 4 5 7 7 2 2 6 6 11 16 20 21 21 21 19 17 16 15 13 12 11 10 10 10 11 10 10 10 10 11 11 11 11 11 11 11 11 11
3 2 4 5 3 5 4 4 7 5 6 5 4 5 6 4 2 6 7 14 17 19 21 21 22 19 18 16 15 14 12 11 11 10 10 10 9 9 9 9 9 10 10 10 10 10 10 10 9
4 4 5 4 3 6 6 6 6 4 1 3 5 5 2 1 4 5 10 15 15 15 21 22 22 20 18 17 15 14 13 12 11 10 9 9 9 8 8 8 8 8 8 8 8 8 8 8 8
4 4 4 1 5 5 5 7 8 6 3 1 5 6 1 7 1 9 13 15 16 13 20 22 23 21 19 18 16 14 13 12 11 10 9 8 8 8 7 7 6 6 6 6 6 7 7 7 6
4 5 4 2 5 4 4 4 5 5 2 1 4 5 1 2 5 9 11 12 13 15 19 20 22 21 19 18 17 15 14 12 11 9 8 8 7 7 6 5 5 4 4 4 4 4 4 4 4
4 4 2 4 3 3 4 2 6 7 4 2 5 6 2 3 6 8 9 9 11 16 16 17 20 20 20 18 17 16 14 13 11 10 9 8 7 6 6 5 4 3 2 2 1 1 2 2 3
5 4 1 2 2 1 2 1 4 6 4 1 5 9 6 7 6 7 8 9 9 10 12 15 17 18 18 18 17 16 15 13 12 10 9 8 7 6 5 6 5 4 3 2 2 2 3 3 4
4 4 1 2 1 2 3 3 4 2 5 4 4 4 4 8 8 9 6 6 8 10 9 12 14 16 17 17 17 17 16 14 13 11 11 10 8 7 6 7 7 7 6 5 5 5 5 6 6
5 3 4 3 2 3 1 2 2 3 3 2 3 3 4 7 9 9 9 10 11 12 12 9 12 15 16 15 15 15 15 14 13 12 11 11 10 9 8 9 10 10 8 8 7 8 8 8 7
4 5 4 3 2 4 2 1 1 3 3 5 6 7 6 6 7 9 9 10 12 13 13 12 12 15 15 12 13 13 13 13 13 12 12 11 10 9 8 8 10 10 10 9 9 9 9 9 10
3 5 4 3 3 4 4 2 1 3 6 6 8 9 8 8 9 10 10 9 9 11 14 13 12 13 14 14 12 12 11 11 11 13 13 12 9 7 7 8 9 9 10 9 10 10 12 12 13
3 5 5 3 4 4 4 4 3 6 6 4 6 8 8 8 8 7 8 8 9 11 13 13 11 11 13 12 11 12 11 12 13 14 14 13 10 8 8 8 9 10 11 10 10 10 11 11 11
3 3 6 6 5 4 5 5 3 9 5 6 7 8 7 6 6 5 5 7 9 11 12 12 12 12 13 10 8 10 12 12 12 12 13 14 12 10 8 7 8 9 10 11 11 10 9 8 8
2 4 8 7 6 6 4 6 8 9 6 7 7 7 6 4 3 2 4 6 8 10 10 11 12 11 11 9 10 10 11 11 10 11 13 13 12 11 9 6 6 8 9 8 7 7 6 5 5
2 2 5 7 3 4 8 9 10 6 9 9 7 6 5 3 2 0 1 3 6 8 9 9 10 10 9 8 8 8 8 8 8 9 10 11 11 11 9 6 5 7 6 4 3 3 3 4 4
2 2 5 7 2 4 7 9 8 4 9 10 9 8 6 4 2 2 2 3 6 8 9 8 8 9 8 7 7 7 7 6 5 5 5 5 6 7 6 4 4 4 2 2 2 2 2 4 5
5 4 4 5 4 5 7 10 10 7 8 10 9 8 7 6 4 2 4 5 6 7 8 9 8 8 7 5 5 4 4 4 3 3 3 2 2 3 3 3 2 2 1 1 2 3 2 3 4
4 5 7 7 6 6 10 12 13 10 8 9 9 9 9 7 4 4 5 6 7 7 8 8 8 7 7 4 4 4 3 2 2 2 2 2 1 1 1 1 1 1 1 2 2 2 3 3 2
6 6 7 7 3 4 8 13 13 11 10 12 14 13 11 8 6 5 5 5 6 6 7 8 8 7 7 5 4 3 3 2 1 1 1 1 1 1 2 1 1 0 1 2 3 2 2 3 1
6 6 6 6 5 5 5 9 8 6 6 7 10 11 11 12 11 8 7 6 6 7 7 7 8 8 7 6 5 5 4 3 2 2 1 2 1 1 1 2 1 0 0 2 3 2 2 3 3
6 6 6 4 1 5 1 6 9 6 4 6 9 10 11 10 9 9 8 7 7 6 6 7 7 7 7 7 6 6 4 3 2 1 0 2 3 1 0 1 1 0 1 2 3 2 2 3 4
7 4 2 1 2 4 3 4 9 3 6 9 11 12 12 11 12 11 9 8 7 6 6 7 7 7 6 6 7 7 4 3 2 1 2 2 3 3 2 0 0 1 2 3 4 4 3 3 4
5 4 6 5 4 4 6 7 8 6 9 8 11 12 12 12 11 10 9 8 6 6 6 7 8 6 6 7 7 7 7 5 4 2 1 1 2 2 3 2 2 3 3 4 4 4 5 4 5
5 5 3 3 1 7 4 6 10 9 8 10 15 16 13 13 12 12 11 10 9 8 8 7 8 6 6 7 6 6 7 6 5 3 1 0 1 2 3 2 3 3 5 6 6 4 5 5 6
7 9 7 6 5 5 3 7 8 6 6 6 10 12 13 13 13 13 13 12 10 10 9 8 8 7 6 6 6 5 6 4 3 3 2 2 2 3 3 4 5 6 7 7 5 4 6 5 6
7 7 8 5 2 4 7 8 9 3 4 3 9 12 15 15 14 14 13 12 12 11 10 9 9 7 7 7 6 5 5 4 3 2 1 1 2 2 4 4 5 6 7 7 5 5 7 6 6
7 7 5 5 5 5 7 6 5 6 5 4 9 13 14 13 13 13 13 13 12 11 9 9 9 8 7 7 6 5 4 4 3 2 1 2 3 3 4 5 5 6 6 6 6 6 7 7 7
6 5 5 5 5 6 4 7 6 6 6 9 12 13 15 16 16 15 13 12 11 10 9 9 9 7 7 7 5 5 4 3 2 1 2 3 3 3 5 6 6 7 8 7 7 8 8 9 9
8 9 8 6 6 5 4 7 6 5 5 8 10 11 12 14 14 13 12 11 11 11 10 10 9 8 7 6 6 5 3 2 1 2 3 3 4 4 5 6 7 8 8 8 8 9 9 9 10
Wind_Direction
326 347 52 52 54 46 295 267 176 155 139 178 110 107 117 128 147 171 177 146 148 154 167 165 163 159 155 148 141 136 131 124 118 113 108 104 98 93 89 86 82 78 75 73 70 68 67 67 67
354 16 57 61 84 64 284 249 152 154 166 153 106 108 111 134 178 145 138 158 153 157 164 164 164 161 158 152 148 143 137 132 127 120 116 109 104 99 94 90 86 81 78 76 73 70 68 67 65
356 50 82 77 123 186 212 213 177 178 166 136 103 98 133 160 187 182 179 152 150 157 162 165 166 164 161 157 153 148 143 139 134 129 123 115 109 104 98 94 90 86 81 78 75 72 69 66 64
49 51 59 83 228 229 204 204 177 138 99 112 109 86 81 347 212 195 147 147 149 156 162 168 167 166 164 160 157 154 151 146 141 136 131 125 118 112 107 102 97 92 86 81 77 73 69 65 62
62 75 68 13 254 251 216 195 159 126 152 183 113 114 56 334 45 130 143 151 154 157 164 170 169 168 166 164 162 160 156 153 151 148 143 137 130 124 120 114 107 99 92 86 80 73 68 64 58
54 68 92 246 259 259 245 214 127 101 89 10 109 117 185 319 126 143 150 156 157 160 165 171 172 171 169 168 167 165 164 162 160 158 155 150 145 141 138 133 124 114 103 90 81 72 62 54 46
102 97 173 235 264 246 213 189 123 116 102 164 127 125 221 244 191 157 146 149 153 161 164 170 173 173 173 173 172 171 171 171 170 170 169 166 163 164 164 162 160 156 146 125 84 46 24 10 4
125 101 340 287 251 246 270 138 135 132 152 133 112 147 201 214 183 137 124 139 150 160 165 168 171 172 174 176 176 175 176 178 179 180 178 179 184 192 194 193 197 204 211 221 249 285 304 312 314
93 79 265 282 335 318 339 55 354 100 98 53 56 168 209 146 134 124 116 134 155 167 171 169 168 171 173 176 181 179 182 185 186 187 185 186 195 209 224 216 218 227 235 246 260 274 286 293 295
93 140 230 248 206 182 19 54 350 55 61 68 50 37 94 124 146 158 162 167 172 178 180 176 173 172 174 179 183 183 185 190 190 190 190 192 201 214 230 236 233 237 244 254 267 276 282 288 287
164 198 233 271 215 169 163 305 338 138 215 201 184 173 155 156 169 183 188 182 184 180 181 182 179 176 176 179 180 183 184 188 193 195 197 201 208 220 233 237 239 241 249 256 267 279 282 279 277
234 244 227 233 216 178 180 201 303 200 219 203 181 167 167 175 188 197 202 200 187 178 185 183 181 179 181 180 181 184 185 189 196 202 206 205 206 213 218 220 226 233 242 249 256 263 269 271 273
253 276 302 280 233 210 194 218 238 243 224 181 151 152 174 188 205 218 215 206 186 182 184 182 180 180 181 178 182 186 190 194 202 209 214 212 206 207 211 218 226 234 240 245 250 254 259 263 269
238 268 295 280 251 231 215 249 231 252 208 173 158 163 174 181 201 213 213 207 193 185 179 177 179 179 175 176 179 184 191 196 201 209 214 214 212 212 211 220 228 236 240 243 245 247 249 255 262
268 315 312 282 238 228 179 270 241 237 173 175 176 172 165 168 165 202 214 201 190 181 170 169 174 171 171 172 176 180 187 193 200 210 216 216 216 217 217 222 234 244 246 246 248 254 254 260 266
9 2 298 291 216 178 152 251 263 227 174 187 191 181 165 153 133 159 204 167 168 162 159 161 164 159 162 163 165 168 176 185 197 207 211 214 217 220 219 223 237 251 256 258 259 260 274 275 278
0 250 258 297 212 170 184 241 262 204 178 192 194 187 171 152 107 54 56 117 143 150 148 144 144 150 153 147 145 140 142 148 165 178 188 201 213 220 216 222 240 254 263 280 283 279 265 283 287
229 234 254 275 261 183 215 247 261 241 206 201 195 188 178 165 161 106 76 97 113 122 127 128 127 135 131 119 110 103 99 100 112 129 150 166 192 216 210 216 241 257 276 308 311 296 285 272 281
219 244 267 264 253 202 232 253 259 243 221 212 200 189 183 175 160 108 89 96 100 105 115 122 123 128 129 124 123 118 114 96 81 101 116 115 143 192 187 219 277 303 277 279 288 293 300 295 298
228 255 271 284 289 226 256 264 260 240 218 205 195 188 181 168 156 132 111 102 110 120 120 120 124 127 128 129 130 128 125 112 96 47 51 59 151 175 169 173 202 290 304 311 309 299 298 293 311
231 229 244 264 312 317 301 294 279 265 221 198 189 183 178 172 166 156 139 127 124 131 136 132 130 127 124 123 112 91 74 57 40 21 353 342 329 200 179 178 175 204 216 282 290 279 256 282 297
243 234 221 239 288 290 316 294 286 268 241 202 188 181 182 174 164 158 153 149 148 151 140 130 129 126 126 126 128 133 139 151 186 191 322 350 13 16 87 159 154 198 257 280 284 271 244 245 280
216 215 188 195 188 294 258 229 282 269 240 227 203 192 186 177 168 163 161 158 153 149 142 135 127 124 125 123 129 127 127 142 130 89 55 17 6 10 4 358 1 309 293 284 287 291 271 238 248
158 76 42 46 77 281 228 192 274 238 222 219 202 195 187 176 167 159 153 145 143 144 141 139 135 133 132 129 132 136 140 140 127 105 69 9 349 347 351 338 315 301 292 284 282 278 277 264 260
121 102 358 327 340 250 217 200 251 253 234 209 196 191 184 175 167 163 161 161 160 160 159 154 148 146 144 138 140 145 147 146 149 155 161 225 319 308 303 313 300 293 289 289 288 281 280 273 269
180 159 182 217 231 275 255 223 253 270 283 224 186 174 171 175 175 174 174 171 169 170 168 164 161 158 156 149 148 148 147 146 157 169 180 212 238 259 277 295 297 297 299 298 294 284 279 275 271
158 196 181 155 236 265 274 278 300 283 357 114 151 161 178 183 182 180 178 176 174 174 176 173 168 163 163 159 153 153 154 154 165 175 188 237 259 268 290 301 302 303 302 297 293 282 282 281 273
161 163 134 161 194 240 276 272 260 277 255 183 178 184 188 187 187 185 183 182 180 177 173 170 168 168 166 163 163 160 162 166 169 171 243 275 284 290 303 304 301 299 297 294 289 284 279 279 276
167 182 177 172 177 179 251 270 234 245 231 208 204 198 192 192 192 191 188 184 178 170 167 168 168 162 163 164 159 154 163 167 166 204 260 274 281 291 295 295 296 296 294 292 289 284 283 280 280
187 190 166 177 221 193 198 267 276 276 249 212 212 208 202 199 196 191 183 175 174 172 170 169 169 167 169 166 160 165 171 173 201 254 269 272 279 281 282 287 291 291 291 290 287 286 287 282 281
Height
1541 1542 1544 1546 1549 1560 1560 1552 1546 1545 1543 1542 1542 1543 1546 1549 1552 1557 1554 1551 1552 1553 1554 1556 1558 1559 1560 1561 1561 1562 1562 1563 1563 1563 1563 1562 1562 1562 1561 1560 1560 1559 1559 1558 1558 1557 1557 1556 1556
1541 1542 1545 1545 1556 1568 1562 1549 1545 1541 1541 1541 1542 1544 1545 1547 1548 1549 1550 1550 1552 1553 1554 1556 1557 1559 1560 1561 1562 1562 1563 1563 1563 1563 1563 1563 1563 1563 1562 1561 1561 1560 1560 1559 1559 1558 1558 1557 1557
1541 1542 1545 1548 1558 1563 1555 1546 1543 1540 1540 1541 1542 1544 1546 1547 1548 1549 1549 1550 1551 1552 1554 1556 1557 1559 1560 1561 1562 1563 1563 1563 1564 1564 1564 1564 1564 1563 1563 1562 1562 1561 1561 1560 1560 1559 1559 1559 1558
1542 1544 1545 1552 1555 1551 1546 1543 1540 1540 1540 1541 1542 1545 1547 1548 1548 1549 1549 1550 1551 1552 1554 1555 1557 1558 1560 1561 1562 1563 1563 1564 1564 1564 1564 1564 1564 1564 1564 1563 1563 1562 1562 1562 1561 1561 1560 1560 1560
1542 1543 1549 1556 1552 1544 1540 1538 1538 1539 1540 1541 1542 1544 1546 1547 1547 1548 1549 1550 1551 1552 1553 1555 1556 1558 1559 1561 1562 1562 1563 1564 1564 1565 1565 1565 1565 1565 1564 1564 1564 1564 1563 1563 1563 1562 1562 1562 1561
1543 1544 1556 1559 1550 1542 1539 1537 1536 1538 1540 1541 1542 1544 1545 1547 1547 1548 1549 1550 1551 1552 1553 1554 1556 1557 1559 1560 1561 1562 1563 1564 1564 1565 1565 1565 1565 1565 1565 1565 1565 1565 1565 1564 1564 1564 1563 1563 1563
1544 1548 1554 1552 1549 1543 1539 1537 1536 1538 1539 1541 1542 1543 1544 1546 1547 1548 1548 1550 1551 1552 1553 1554 1555 1556 1558 1560 1561 1562 1563 1564 1564 1565 1565 1565 1566 1566 1566 1566 1566 1566 1566 1565 1565 1565 1564 1564 1564
1542 1547 1550 1551 1547 1543 1538 1537 1537 1537 1539 1541 1541 1542 1543 1544 1546 1547 1548 1549 1550 1551 1552 1553 1554 1556 1557 1559 1560 1561 1562 1563 1564 1564 1565 1565 1566 1566 1566 1566 1566 1566 1566 1566 1566 1565 1565 1564 1564
1542 1551 1554 1548 1546 1543 1538 1538 1538 1537 1538 1539 1540 1541 1542 1543 1544 1546 1546 1547 1548 1549 1551 1552 1553 1555 1556 1558 1559 1560 1561 1562 1563 1564 1564 1565 1565 1565 1566 1566 1566 1566 1566 1565 1565 1565 1564 1564 1564
1542 1552 1547 1542 1541 1540 1539 1538 1538 1537 1538 1539 1539 1540 1541 1542 1543 1543 1544 1544 1545 1547 1549 1550 1552 1554 1555 1557 1558 1559 1560 1561 1562 1563 1564 1564 1564 1565 1565 1565 1565 1565 1565 1565 1564 1564 1563 1563 1562
1540 1544 1541 1540 1539 1539 1539 1538 1538 1537 1537 1537 1537 1538 1539 1540 1541 1542 1542 1542 1543 1545 1547 1549 1550 1552 1554 1555 1556 1558 1559 1560 1561 1562 1563 1563 1563 1564 1564 1564 1564 1564 1564 1564 1563 1563 1562 1561 1560
1540 1538 1538 1538 1538 1537 1537 1536 1536 1535 1535 1535 1536 1536 1537 1538 1538 1539 1540 1540 1542 1543 1544 1547 1549 1550 1552 1554 1555 1557 1558 1559 1560 1561 1561 1562 1562 1562 1563 1563 1563 1562 1562 1562 1562 1561 1560 1559 1558
1539 1537 1536 1536 1536 1535 1535 1534 1534 1532 1532 1533 1534 1535 1535 1535 1536 1536 1537 1538 1539 1540 1542 1544 1546 1548 1550 1552 1554 1555 1557 1558 1559 1559 1560 1561 1561 1561 1561 1561 1561 1561 1561 1560 1559 1559 1558 1557 1556
1538 1536 1535 1534 1533 1533 1533 1532 1533 1528 1530 1531 1531 1532 1533 1533 1533 1533 1534 1534 1536 1538 1540 1542 1544 1546 1548 1550 1552 1554 1555 1557 1557 1558 1559 1559 1559 1559 1559 1559 1559 1559 1559 1558 1557 1556 1555 1554 1552
1537 1537 1535 1531 1529 1530 1532 1533 1529 1525 1527 1528 1529 1529 1530 1530 1530 1530 1530 1531 1533 1535 1538 1540 1542 1544 1547 1549 1551 1553 1554 1555 1556 1557 1557 1558 1558 1558 1558 1557 1557 1557 1556 1555 1554 1553 1552 1550 1549
1537 1540 1542 1531 1528 1528 1534 1536 1524 1522 1524 1525 1526 1527 1527 1528 1527 1527 1527 1528 1530 1533 1536 1538 1541 1543 1545 1547 1549 1551 1552 1553 1554 1555 1556 1556 1556 1556 1555 1555 1555 1554 1553 1552 1551 1550 1548 1547 1545
1543 1546 1542 1534 1528 1528 1531 1531 1521 1521 1521 1522 1523 1524 1524 1525 1525 1525 1525 1526 1528 1531 1534 1537 1539 1541 1544 1546 1548 1550 1551 1552 1553 1553 1554 1554 1554 1553 1553 1552 1552 1551 1550 1549 1548 1546 1544 1542 1541
1545 1543 1540 1536 1528 1529 1530 1527 1520 1520 1520 1519 1520 1521 1522 1522 1523 1523 1524 1525 1527 1529 1532 1535 1537 1540 1542 1544 1546 1548 1549 1550 1551 1551 1551 1551 1551 1551 1550 1549 1549 1548 1546 1545 1544 1542 1540 1539 1536
1537 1538 1539 1534 1526 1527 1528 1525 1519 1516 1517 1517 1517 1517 1519 1520 1521 1522 1522 1524 1526 1528 1531 1533 1535 1538 1540 1542 1544 1546 1547 1548 1548 1549 1549 1548 1548 1547 1547 1546 1545 1544 1543 1542 1540 1538 1537 1535 1533
1535 1537 1536 1531 1525 1525 1525 1522 1514 1510 1510 1509 1510 1512 1515 1517 1519 1520 1521 1523 1525 1527 1529 1532 1534 1536 1538 1540 1542 1544 1545 1546 1546 1546 1546 1546 1545 1544 1544 1543 1542 1541 1540 1538 1537 1535 1533 1532 1530
1533 1534 1533 1532 1526 1524 1525 1523 1513 1505 1504 1505 1506 1508 1511 1513 1515 1517 1520 1522 1524 1526 1528 1531 1533 1535 1537 1539 1541 1542 1543 1544 1544 1544 1544 1544 1543 1542 1541 1540 1539 1538 1537 1536 1534 1532 1530 1528 1527
1534 1527 1528 1529 1533 1537 1530 1537 1515 1507 1504 1503 1504 1505 1508 1511 1514 1516 1518 1520 1523 1526 1528 1530 1532 1534 1536 1538 1539 1541 1541 1542 1542 1542 1542 1541 1541 1540 1539 1538 1537 1536 1534 1533 1531 1530 1527 1525 1523
1526 1523 1525 1526 1531 1536 1534 1536 1518 1508 1506 1502 1501 1502 1505 1508 1511 1514 1517 1520 1522 1525 1527 1530 1532 1534 1535 1537 1539 1540 1540 1541 1540 1540 1540 1539 1539 1538 1537 1536 1535 1533 1532 1530 1528 1526 1524 1522 1519
1521 1525 1530 1536 1539 1544 1534 1538 1523 1509 1500 1496 1497 1499 1502 1506 1510 1513 1516 1519 1522 1524 1527 1529 1531 1533 1535 1536 1537 1538 1539 1539 1539 1538 1538 1537 1536 1535 1534 1533 1532 1530 1529 1526 1524 1522 1520 1517 1515
1523 1534 1545 1544 1550 1544 1528 1530 1516 1495 1491 1490 1491 1494 1499 1503 1507 1510 1514 1517 1520 1523 1525 1528 1530 1532 1534 1535 1536 1537 1537 1537 1536 1536 1535 1535 1534 1533 1532 1530 1529 1527 1525 1522 1520 1517 1515 1512 1509
1524 1529 1543 1546 1545 1536 1522 1525 1503 1489 1486 1485 1487 1491 1497 1501 1505 1508 1511 1515 1518 1521 1524 1526 1529 1531 1532 1533 1534 1535 1535 1535 1534 1533 1533 1532 1531 1530 1529 1527 1525 1523 1520 1518 1515 1512 1509 1506 1503
1522 1526 1525 1535 1534 1536 1526 1513 1497 1487 1486 1486 1488 1491 1495 1498 1502 1506 1509 1513 1516 1519 1522 1525 1527 1529 1530 1532 1532 1533 1533 1532 1532 1531 1530 1529 1528 1527 1525 1523 1521 1518 1516 1513 1509 1506 1503 1500 1496
1512 1517 1528 1533 1539 1539 1527 1515 1505 1490 1487 1488 1489 1490 1492 1496 1500 1503 1507 1510 1513 1517 1520 1523 1525 1527 1528 1529 1530 1530 1530 1530 1529 1528 1527 1526 1525 1523 1521 1519 1516 1513 1510 1507 1503 1500 1496 1492 1489
1513 1516 1519 1526 1530 1535 1531 1516 1492 1487 1485 1486 1486 1487 1489 1492 1496 1499 1503 1507 1511 1514 1517 1520 1522 1524 1526 1527 1527 1528 1527 1527 1526 1525 1524 1523 1521 1519 1517 1514 1511 1508 1504 1501 1497 1493 1489 1485 1481
1506 1508 1515 1523 1523 1525 1528 1515 1485 1484 1483 1483 1484 1485 1487 1490 1493 1496 1500 1504 1507 1510 1513 1516 1519 1521 1523 1524 1525 1525 1524 1524 1523 1522 1521 1519 1517 1515 1512 1509 1505 1502 1498 1494 1490 1486 1482 1478 1474